Home > Time Zones > World Clock > Weather > U.S.A. > Adak > Past weeks

Flag for U.S.A. Weather past 2 weeks in Adak, Alaska, U.S.A.

Now
45 °F

More clouds than sun.


Feels Like: 39 °F
Forecast: 46 / 49 °F
Wind: 12 mph from Northeast

Location: Adak

Current Time: Jul 2, 2015 at 7:53:08 AM

Latest Report: Jul 2, 2015 at 7:36 AM


Visibility: 9 mi

Pressure: 29.58 "Hg

Humidity: 81%

Dew point: 39 °F

Location of AdakLocation

Historic Weather in Adak — Graph

°F

Adak temperature yesterday

Maximum temperature yesterday: 52 °F (at 2:56 PM)
Minimum temperature yesterday: 46 °F (at 8:36 PM)
Average temperature yesterday: 48 °F

Past Weeks' High & Low Weather Summary

 TemperatureHumidityPressure
High59 °F (Jun 18, 4:16 PM)87% (Jun 18, 2:56 AM)30.32 "Hg (Jun 18, 2:56 AM)
Low41 °F (Jun 27, 4:36 AM)55% (Jun 29, 4:16 PM)29.58 "Hg (Jul 2, 5:36 AM)
Average47 °F76%30.01 "Hg
* Reported Jun 17 6:16 AM — Jul 2 6:56 AM, Adak, Weather by CustomWeather, © 2015

Note: Actual official high and low records may vary slightly from our data, if they occured in-between our weather recording intervals... More about our weather records

Advertising

Adak weather history for previous 24 hours

 ConditionsComfort  
Time TempWeatherWind HumidityBarometerVisibility
6:56 AM
Thu, Jul 2
46 °FMostly cloudy.14 mph76%29.58 "Hg10 mi
6:36 AM45 °FMore clouds than sun.14 mph81%29.58 "Hg8 mi
6:16 AM45 °FOvercast.13 mph87%29.58 "Hg5 mi
5:56 AM46 °FMostly cloudy.12 mph76%29.58 "Hg8 mi
5:36 AM46 °FOvercast.10 mph76%29.58 "Hg10 mi
5:16 AM46 °FOvercast.12 mph76%29.59 "Hg10 mi
4:56 AM46 °FLow clouds.13 mph76%29.59 "Hg10 mi
4:36 AM46 °FLow clouds.13 mph82%29.59 "Hg10 mi
4:16 AM46 °FMostly cloudy.12 mph76%29.60 "Hg10 mi
3:56 AM46 °FMostly cloudy.14 mph82%29.59 "Hg10 mi
3:36 AM46 °FMostly cloudy.13 mph82%29.60 "Hg10 mi
3:16 AM46 °FOvercast.10 mph82%29.60 "Hg10 mi
2:56 AM46 °FMostly cloudy.12 mph82%29.61 "Hg10 mi
2:36 AM46 °FLow clouds.12 mph82%29.61 "Hg10 mi
2:16 AM46 °FLow clouds.13 mph82%29.61 "Hg10 mi
1:56 AM46 °FLow clouds.13 mph82%29.62 "Hg10 mi
1:36 AM46 °FLow clouds.13 mph82%29.62 "Hg6 mi
1:16 AM46 °FOvercast.10 mph82%29.62 "Hg10 mi
12:56 AM46 °FMostly cloudy.12 mph82%29.63 "Hg10 mi
12:36 AM46 °FMostly cloudy.9 mph82%29.63 "Hg10 mi
12:16 AM46 °FOvercast.13 mph82%29.63 "Hg10 mi
11:56 PM
Wed, Jul 1
46 °FOvercast.14 mph82%29.63 "Hg10 mi
11:36 PM46 °FMostly cloudy.15 mph82%29.63 "Hg10 mi
11:16 PM46 °FMostly cloudy.14 mph82%29.63 "Hg10 mi
10:56 PM46 °FOvercast.14 mph82%29.64 "Hg10 mi
10:36 PM46 °FOvercast.16 mph82%29.64 "Hg10 mi
10:16 PM46 °FMore clouds than sun.17 mph82%29.64 "Hg10 mi
9:56 PM46 °FMore clouds than sun.17 mph82%29.64 "Hg7 mi
9:36 PM46 °FMostly cloudy.14 mph82%29.64 "Hg10 mi
9:16 PM46 °FMostly cloudy.14 mph87%29.64 "Hg10 mi
8:56 PM46 °FOvercast.12 mph87%29.64 "Hg10 mi
8:36 PM46 °FOvercast.12 mph87%29.64 "Hg3 mi
8:16 PM48 °FOvercast.15 mph82%29.65 "Hg5 mi
7:56 PM48 °FOvercast.13 mph82%29.65 "Hg8 mi
7:36 PM48 °FOvercast.9 mph82%29.65 "Hg10 mi
6:56 PM48 °FOvercast.9 mph82%29.65 "Hg10 mi
6:36 PM48 °FMostly cloudy.12 mph82%29.65 "Hg10 mi
6:16 PM48 °FOvercast.7 mph82%29.66 "Hg10 mi
5:56 PM48 °FOvercast.8 mph82%29.66 "Hg10 mi
5:36 PM48 °FOvercast.9 mph82%29.67 "Hg9 mi
5:16 PM50 °FOvercast.13 mph76%29.67 "Hg10 mi
4:56 PM50 °FOvercast.7 mph76%29.67 "Hg10 mi
4:36 PM50 °FOvercast.9 mph76%29.67 "Hg10 mi
4:16 PM50 °FMostly cloudy.10 mph76%29.67 "Hg10 mi
3:56 PM52 °FMostly cloudy.10 mph72%29.67 "Hg10 mi
3:36 PM50 °FOvercast.12 mph76%29.68 "Hg10 mi
3:16 PM52 °FMostly cloudy.9 mph77%29.68 "Hg10 mi
2:56 PM52 °FMore clouds than sun.9 mph77%29.68 "Hg10 mi
2:36 PM50 °FOvercast.7 mph76%29.69 "Hg10 mi
2:16 PM50 °FMostly cloudy.13 mph76%29.69 "Hg9 mi
1:56 PM50 °FMostly cloudy.9 mph76%29.69 "Hg10 mi
1:36 PM50 °FMostly cloudy.6 mph76%29.69 "Hg10 mi
12:56 PM48 °FMostly cloudy.6 mph82%29.70 "Hg10 mi
12:16 PM48 °FMostly cloudy.10 mph82%29.70 "Hg10 mi
11:56 AM48 °FMore clouds than sun.12 mph82%29.70 "Hg10 mi
11:36 AM50 °FMostly cloudy.14 mph76%29.71 "Hg10 mi
11:16 AM48 °FMostly cloudy.13 mph82%29.71 "Hg10 mi
10:56 AM48 °FMostly cloudy.10 mph82%29.72 "Hg10 mi
10:36 AM48 °FMostly cloudy.10 mph82%29.72 "Hg10 mi
10:16 AM48 °FOvercast.7 mph82%29.72 "Hg10 mi
9:56 AM48 °FMostly cloudy.10 mph82%29.72 "Hg10 mi
9:36 AM48 °FOvercast.8 mph76%29.73 "Hg10 mi
9:16 AM48 °FOvercast.7 mph76%29.72 "Hg10 mi
8:56 AM48 °FMostly cloudy.7 mph82%29.73 "Hg10 mi
8:36 AM48 °FMostly cloudy.7 mph82%29.73 "Hg7 mi
8:16 AM48 °FMostly cloudy.10 mph82%29.73 "Hg8 mi
7:56 AM48 °FMostly cloudy.9 mph82%29.73 "Hg10 mi
7:36 AM48 °FMostly cloudy.10 mph82%29.72 "Hg8 mi
7:16 AM48 °FMostly cloudy.12 mph82%29.73 "Hg9 mi
Weather by CustomWeather, © 2015

See weather overviewHow to use our weather pages